Logan Cache Airport
KLGU : rendu visible

Aérodrome :











RETROUVEZ-NOUS SUR...

 
LOGIN :

S'inscrire | Disclaimer

   EN    FR    IT 

 









Légende :    VFR   VFR Marginal   IFR   IFR Intensif   IFR Très Intensif
Visi : 
Plafond : 
>= 8 km
>= 3000ft
5 à 8 km
1000 à 3000 ft
1500m à 5 km
500 à 1000 ft
800 à 1500m
200 à 500 ft
< 800m
< 200 ft
Symboles :   Orages  Brouillard  Fortes neiges  Fortes précipitations  Vent > 20 kt






- Altitude de l'aérodrome : 4457 ft


KLGU - Logan Cache

DERNIER METAR :
  • 250451Z AUTO 00000KT 10SM CLR 09/03 A3015 RMK AO2 SLP191 T00890028

METARs EXPIRÉS :
  • 250351Z AUTO 12005KT 10SM CLR 11/03 A3014 RMK AO2 SLP187 T01110033
  • 250251Z AUTO 26003KT 10SM CLR 14/04 A3012 RMK AO2 SLP178 T01390044 53003

TAF KLGU
Valide du 25 à 06h jusqu'au 26 à 06h UTC


250520Z 2506/2606 VRB04KT P6SM FEW100
FIR KZLC / Amérique du Nord



MET'MAP, la Météo Aéronautique d'un coup d'oeil ! - Copyright ORBIFLY Décembre 2007 - Disclaimer

ORBIFLY MET'MAP TEAM :

Programmation & Développement : Alexandra Zaïnal
Sur une idée originale de : Baudouin d'Aumeries
Assistance à la programmation : Marc-Olivier Méhu
Soutien technique & logistique : Manuel Goepfert

Contact : metmap@orbifly.com




SOURCES & CREDITS :

   NOAA       Earth
Advisory